Content
SEND FEEDBACK

Daily
Averages
Monthly
Summary
United States of America

ARNOLD, MINNESOTA


Home > North America > United States > Minnesota
Elevation: 1370 feet     Latitude: 46 59N     Longitude: 092 14W

WEATHER
 
SELECT A DAY
Number of Records: 110,260;   Date Range: 1/1/95 - 8/30/14
 
SHARE

PRINT THIS DATA

[ ← Previous Day ]
WEATHER ALMANAC - FEBRUARY 13, 2013
[ Next Day → ]
[ °C ]   °F
Weather ElementAverageHighLow
Temperature28.8 °F36 °F (1:55 pm)19 °F (7:55 am)
Dewpoint21.2 °F25 °F (12:55 pm)15.1 °F (7:55 am)
Humidity73.5 %85 % (6:55 am)64 % (1:55 pm)
Barometer29.65 in29.72 in (1:55 am)29.56 in (3:12 pm)
Wind Speed6.2 mph10.4 mph (3:12 pm)
Weather ElementAverage
Visibility9.5 mi
Wind DirectionS (182.4 °)

Weather ElementTotal
Precipitation---
Heating Degree Days37.5 (Base 65)
Averaged from 29 records on February 13, 2013
WEATHER CONDITIONS BREAKOUT
WIND DIRECTION BREAKOUT
WEATHER BY HOUR - FEBRUARY 13, 2013
[ °C ]   °F
Local TimeTemperatureDewpointHumidityBarometerVisibilityWind DirectionWind SpeedGust SpeedPrecipitationEventsConditions
1:55 AM25.0 °F18.0 °F75 %29.72 in10.0 miWest (270°)6.9 mphOvercast
2:55 AM24.1 °F18.0 °F77 %29.71 in10.0 miWest (270°)8.1 mphOvercast
3:55 AM25.0 °F19.0 °F78 %29.70 in10.0 miWNW (290°)6.9 mphOvercast
4:55 AM23.0 °F18.0 °F81 %29.70 in10.0 miWest (260°)5.8 mphOvercast
5:55 AM21.0 °F16.0 °F81 %29.69 in10.0 miWest (270°)8.1 mphMostly Cloudy
6:55 AM19.9 °F16.0 °F85 %29.69 in10.0 miWNW (290°)4.6 mphPartly Cloudy
7:55 AM19.0 °F15.1 °F85 %29.69 in9.0 miWest (280°)6.9 mphPartly Cloudy
8:55 AM25.0 °F19.0 °F78 %29.68 in10.0 miWNW (290°)8.1 mphPartly Cloudy
9:55 AM28.0 °F21.0 °F75 %29.66 in10.0 miNW (310°)8.1 mphPartly Cloudy
10:55 AM30.0 °F21.9 °F72 %29.67 in10.0 miWest (280°)6.9 mphPartly Cloudy
11:55 AM34.0 °F24.1 °F67 %29.65 in10.0 miWest (260°)5.8 mphPartly Cloudy
12:55 PM35.1 °F25.0 °F67 %29.63 in10.0 miWest (270°)9.2 mphScattered Clouds
1:55 PM36.0 °F25.0 °F64 %29.62 in10.0 miWest (270°)4.6 mphScattered Clouds
2:55 PM36.0 °F25.0 °F64 %29.62 in10.0 miWNW (290°)5.8 mphPartly Cloudy
3:12 PM35.6 °F24.8 °F65 %29.56 in10.0 miNorth (10°)10.4 mphMostly Cloudy
3:24 PM33.8 °F24.8 °F70 %29.57 in10.0 miNorth (10°)10.4 mphScattered Clouds
3:55 PM33.1 °F23.0 °F66 %29.64 in10.0 miNorth (360°)8.1 mphScattered Clouds
4:19 PM32.0 °F21.2 °F64 %29.58 in10.0 miNorth (10°)8.1 mphMostly Cloudy
4:38 PM30.2 °F21.2 °F69 %29.58 in10.0 miNorth (360°)6.9 mphMostly Cloudy
4:55 PM30.9 °F21.9 °F69 %29.65 in10.0 miNorth (360°)6.9 mphMostly Cloudy
5:55 PM30.0 °F21.9 °F72 %29.66 in10.0 miNorth (10°)5.8 mphMostly Cloudy
6:37 PM30.2 °F21.2 °F69 %29.60 in10.0 miNNE (20°)5.8 mphMostly Cloudy
6:55 PM30.0 °F21.0 °F69 %29.67 in10.0 miNorth (10°)5.8 mphMostly Cloudy
7:55 PM30.0 °F21.0 °F69 %29.68 in9.0 miCalmOvercast
8:17 PM28.4 °F21.2 °F74 %29.62 in3.0 miENE (60°)4.6 mph0.00 inSnowLight Snow
8:55 PM28.0 °F23.0 °F81 %29.68 in5.0 miESE (110°)5.8 mph0.00 inSnowLight Snow
9:55 PM28.0 °F23.0 °F81 %29.68 in10.0 miENE (70°)4.6 mph0.00 inOvercast
10:55 PM27.0 °F21.9 °F81 %29.68 in10.0 miCalmMostly Cloudy
11:55 PM26.1 °F21.9 °F84 %29.68 in10.0 miCalmMostly Cloudy
Hourly data recorded from KDLH, located miles away from Arnold, Minnesota







STORIES FROM OUR PARTNERS